This is the latest recevied weather packets stored in our database for station/object GW4003. If no packets are shown the sender has not sent any weather packets the latest 1 day(s).
| Time | Temp. | Humidity | Pressure | Rain* | Wind** | Luminosity | Snow |
|---|---|---|---|---|---|---|---|
| 1777970356 | 8.33° C | 84% | 1012.4 hPa | 0 mm | 1.34 m/s, 252° | - | - |
| 1777970053 | 8.89° C | 84% | 1012.4 hPa | 0 mm | 1.34 m/s, 262° | - | - |
| 1777969749 | 9.44° C | 85% | 1012.4 hPa | 0 mm | 0.89 m/s, 94° | - | - |
| 1777969446 | 9.44° C | 85% | 1012.5 hPa | 0 mm | 0.45 m/s, 68° | - | - |
| 1777969143 | 10° C | 85% | 1012.5 hPa | 0 mm | 1.79 m/s, 347° | - | - |
| 1777968840 | 10° C | 85% | 1012.5 hPa | 0 mm | 2.24 m/s, 360° | - | - |
| 1777968536 | 10° C | 85% | 1012.6 hPa | 0 mm | 0.89 m/s, 246° | - | - |
| 1777968233 | 9.44° C | 85% | 1012.6 hPa | 0 mm | 0.45 m/s, 317° | - | - |
| 1777967930 | 9.44° C | 85% | 1012.4 hPa | 0 mm | 0.45 m/s, 16° | - | - |
| 1777967627 | 9.44° C | 85% | 1012.4 hPa | 0 mm | 0.45 m/s, 344° | - | - |
| 1777967323 | 9.44° C | 85% | 1012.4 hPa | 0 mm | 0.45 m/s, 17° | - | - |
| 1777967020 | 9.44° C | 85% | 1012.4 hPa | 0 mm | 0 m/s | - | - |
| 1777966717 | 9.44° C | 85% | 1012.5 hPa | 0 mm | 0 m/s | - | - |
| 1777966414 | 9.44° C | 85% | 1012.5 hPa | 0 mm | 0 m/s | - | - |
| 1777966111 | 9.44° C | 85% | 1012.6 hPa | 0 mm | 0 m/s | - | - |
| 1777965807 | 9.44° C | 85% | 1012.4 hPa | 0 mm | 0.45 m/s, 173° | - | - |
| 1777965504 | 9.44° C | 85% | 1012.5 hPa | 0 mm | 0.45 m/s, 184° | - | - |
| 1777965201 | 9.44° C | 85% | 1012.6 hPa | 0 mm | 0.89 m/s, 207° | - | - |
| 1777964897 | 9.44° C | 85% | 1012.6 hPa | 0 mm | 0.45 m/s, 211° | - | - |
| 1777964594 | 9.44° C | 85% | 1012.6 hPa | 0 mm | 0.45 m/s, 192° | - | - |
| 1777964291 | 9.44° C | 85% | 1012.6 hPa | 0 mm | 0 m/s | - | - |
| 1777963988 | 9.44° C | 85% | 1012.6 hPa | 0 mm | 0.89 m/s, 187° | - | - |
| 1777963685 | 9.44° C | 85% | 1012.6 hPa | 0 mm | 0 m/s | - | - |
| 1777963381 | 9.44° C | 85% | 1012.6 hPa | 0 mm | 0.89 m/s, 205° | - | - |
| 1777963078 | 9.44° C | 85% | 1012.5 hPa | 0 mm | 0.45 m/s, 188° | - | - |
* Rain latest hour (hover to see other rain measurements)
** Current wind speed in m/s (hover to see current wind gust speed)